Temp
14 14 13 13 13 14 14 14 14 14 13 13 13 13 13 13 13 13 13 14 14 13 13 13 13 13 13 13 13 13 13 13 13 13 13 13 13 13 13 13 13 13
13 13 13 14 13 13 13 14 14 14 13 13 13 13 13 13 13 14 14 14 14 13 13 13 13 13 13 13 13 13 13 13 13 13 12 13 13 13 13 13 12 12
13 12 13 14 14 13 13 13 13 14 14 13 13 13 13 13 13 14 14 14 14 13 13 13 13 13 13 13 13 13 13 13 13 13 12 13 13 13 13 12 12 12
12 13 13 13 13 13 13 13 13 13 13 13 13 13 13 13 13 13 13 13 13 13 13 13 13 13 13 13 13 13 13 13 13 13 12 12 12 12 12 12 12 12
13 13 13 13 13 13 13 13 13 13 13 13 13 13 13 13 13 13 13 13 13 13 13 13 13 13 13 13 13 13 13 13 13 12 12 12 12 12 12 12 12 12
14 13 13 13 13 13 13 13 13 13 13 13 13 13 13 13 13 13 12 12 12 13 13 13 13 13 12 12 12 12 12 13 13 12 12 12 12 12 12 12 12 12
14 14 13 13 13 13 13 13 13 13 13 13 13 13 13 13 13 12 12 12 12 12 13 13 13 13 12 12 12 12 12 12 12 12 12 12 12 12 12 12 12 12
14 14 13 13 13 13 12 13 13 13 13 13 13 13 13 13 13 12 12 12 12 12 12 12 12 12 12 12 12 12 12 12 12 12 12 12 12 12 12 12 12 12
14 14 13 13 13 13 13 13 13 13 13 13 13 13 13 13 13 12 12 12 12 12 12 12 12 12 12 12 12 12 12 12 12 12 12 12 12 12 12 12 12 12
13 14 14 13 13 12 12 12 12 12 12 13 13 13 12 12 12 12 12 12 12 12 12 12 12 12 12 12 12 12 12 12 12 12 12 12 12 12 12 12 12 12
12 13 13 13 12 12 12 12 12 12 12 12 13 13 12 12 12 12 12 12 12 12 12 12 12 12 12 12 12 12 12 12 12 12 12 12 12 12 12 12 12 12
12 12 12 12 12 12 12 12 12 12 12 12 13 13 13 13 12 12 12 12 12 12 12 12 12 11 11 12 12 12 12 12 12 12 12 12 12 12 12 12 12 12
12 12 13 13 12 12 12 12 12 13 12 12 12 12 13 13 12 12 12 12 12 12 12 12 12 11 11 12 12 12 12 12 12 12 12 12 12 12 12 12 12 12
12 12 12 12 12 12 12 12 12 12 12 12 12 12 12 12 12 12 12 12 12 12 12 12 12 12 11 12 12 12 12 12 12 12 12 12 12 12 12 12 12 12
12 12 12 12 11 12 12 12 12 12 12 11 11 12 12 12 12 12 12 12 12 12 12 12 12 12 12 12 12 12 12 12 12 12 12 12 12 12 12 12 12 12
12 12 12 12 11 12 12 12 11 12 12 11 11 12 12 12 12 12 12 12 12 12 12 12 12 12 12 12 12 12 12 12 12 12 12 12 12 12 12 12 12 12
11 12 12 11 11 12 12 11 11 11 12 11 11 12 12 12 12 12 12 12 12 12 12 12 12 12 12 12 12 12 12 12 12 12 12 12 12 12 12 12 12 12
10 11 11 11 11 11 11 11 11 11 12 11 11 12 12 12 12 12 12 12 12 12 12 12 12 12 12 12 11 11 11 12 12 12 12 12 12 12 12 12 12 12
10 10 11 11 11 11 11 11 11 11 12 11 12 12 12 12 12 12 12 12 12 12 12 12 12 12 12 11 11 11 11 11 12 11 12 12 12 12 12 11 11 12
10 10 10 11 11 11 11 11 11 12 12 11 12 12 12 12 12 12 12 12 11 11 12 12 12 12 11 11 11 11 11 11 11 11 11 12 11 11 11 11 11 11
10 10 10 10 11 11 11 11 11 11 11 11 12 12 12 12 12 11 11 11 11 11 11 11 11 11 11 11 11 11 11 11 11 11 11 11 11 11 11 11 11 11
9 10 9 10 10 11 10 10 11 11 11 11 11 12 12 11 11 11 11 11 11 11 11 11 11 11 11 11 11 11 11 11 11 11 11 11 11 11 11 11 10 10
8 9 9 9 10 10 10 10 10 10 11 11 11 11 11 11 11 11 11 11 11 11 11 11 11 10 10 10 10 10 10 11 11 10 10 11 11 10 11 11 10 10
6 7 7 8 9 9 9 10 10 10 10 10 11 11 10 10 10 10 10 11 11 11 11 11 10 10 10 10 10 10 10 10 10 10 10 10 10 10 10 10 10 10
6 5 5 6 7 8 9 9 9 9 9 9 10 10 10 10 10 10 10 10 10 10 10 10 10 10 9 10 10 10 10 10 10 10 10 10 10 10 10 10 10 10
6 6 5 5 6 7 8 8 9 8 8 8 9 9 9 9 9 10 10 10 9 10 9 9 10 9 9 9 9 9 9 10 10 10 10 10 10 10 10 10 9 9
Height
1508 1509 1511 1514 1516 1516 1516 1517 1518 1519 1520 1522 1524 1525 1527 1528 1529 1530 1531 1532 1534 1535 1536 1537 1538 1539 1540 1541 1542 1543 1544 1545 1546 1547 1548 1549 1550 1551 1552 1553 1553 1554
1508 1509 1511 1513 1515 1515 1516 1517 1518 1519 1520 1521 1523 1524 1526 1527 1528 1529 1530 1531 1533 1534 1535 1536 1537 1538 1539 1540 1541 1542 1543 1544 1546 1547 1548 1549 1549 1550 1551 1552 1553 1553
1508 1508 1509 1511 1512 1513 1514 1515 1516 1518 1519 1520 1521 1523 1525 1526 1527 1528 1529 1530 1531 1533 1534 1535 1536 1538 1539 1540 1541 1542 1543 1544 1545 1546 1547 1548 1549 1550 1550 1551 1552 1552
1507 1507 1507 1508 1509 1510 1511 1511 1512 1514 1516 1518 1519 1521 1523 1525 1526 1527 1528 1529 1530 1532 1533 1534 1535 1537 1538 1539 1540 1541 1542 1543 1544 1545 1547 1547 1548 1549 1550 1550 1551 1552
1505 1506 1505 1505 1506 1507 1507 1506 1507 1508 1511 1514 1517 1519 1521 1523 1525 1526 1527 1529 1530 1531 1532 1533 1534 1535 1537 1538 1539 1540 1541 1542 1543 1544 1546 1547 1547 1548 1549 1550 1550 1551
1501 1502 1502 1503 1504 1504 1503 1503 1504 1505 1506 1510 1513 1516 1519 1521 1523 1525 1527 1528 1529 1530 1531 1532 1533 1535 1536 1537 1538 1539 1541 1542 1542 1544 1545 1546 1546 1547 1548 1549 1550 1550
1499 1499 1499 1500 1501 1502 1503 1505 1508 1508 1507 1508 1511 1514 1517 1519 1521 1524 1525 1527 1528 1529 1530 1531 1532 1534 1535 1537 1538 1539 1540 1541 1542 1543 1544 1545 1545 1546 1547 1548 1549 1550
1497 1497 1496 1497 1498 1501 1504 1508 1510 1510 1509 1508 1509 1512 1515 1517 1520 1522 1524 1526 1527 1528 1529 1530 1532 1533 1535 1536 1538 1539 1540 1541 1542 1543 1543 1544 1545 1545 1546 1548 1548 1549
1495 1494 1493 1494 1496 1499 1503 1507 1509 1509 1510 1508 1508 1511 1514 1516 1519 1521 1523 1525 1526 1528 1528 1530 1531 1533 1535 1536 1537 1538 1539 1540 1541 1542 1543 1544 1544 1545 1546 1547 1548 1548
1493 1493 1491 1492 1495 1498 1501 1505 1507 1509 1510 1508 1508 1511 1513 1515 1518 1520 1522 1524 1525 1526 1528 1529 1531 1532 1534 1536 1537 1538 1539 1540 1541 1542 1543 1543 1544 1545 1546 1547 1547 1547
1492 1491 1491 1493 1496 1497 1499 1504 1506 1508 1510 1509 1508 1511 1513 1515 1518 1520 1522 1523 1524 1526 1527 1528 1530 1531 1533 1535 1536 1537 1538 1539 1540 1541 1542 1543 1544 1545 1545 1546 1547 1547
1489 1490 1491 1493 1494 1495 1497 1501 1504 1506 1510 1510 1510 1511 1513 1515 1518 1520 1521 1523 1524 1525 1527 1528 1530 1531 1533 1534 1535 1536 1538 1539 1540 1541 1542 1543 1543 1544 1545 1546 1546 1547
1487 1488 1490 1491 1492 1493 1496 1499 1502 1504 1508 1511 1512 1512 1512 1515 1518 1520 1521 1522 1524 1525 1527 1528 1529 1531 1532 1533 1535 1536 1537 1538 1539 1540 1541 1542 1543 1544 1545 1546 1546 1547
1485 1486 1486 1487 1489 1492 1494 1497 1500 1502 1506 1510 1514 1514 1513 1514 1517 1520 1521 1522 1524 1525 1527 1528 1529 1530 1532 1533 1534 1535 1536 1538 1538 1539 1540 1541 1542 1543 1544 1545 1546 1546
1483 1484 1485 1485 1486 1489 1492 1495 1498 1501 1504 1509 1514 1514 1513 1514 1517 1519 1521 1522 1524 1525 1527 1528 1529 1530 1531 1533 1534 1535 1536 1537 1538 1539 1540 1540 1542 1543 1544 1545 1545 1545
1481 1482 1483 1483 1484 1487 1490 1494 1497 1500 1503 1508 1511 1512 1511 1513 1516 1518 1521 1523 1524 1525 1526 1527 1528 1530 1531 1532 1534 1535 1536 1537 1537 1538 1539 1540 1541 1542 1543 1544 1544 1545
1479 1479 1481 1481 1482 1485 1489 1492 1496 1498 1501 1505 1508 1509 1510 1512 1514 1516 1520 1523 1524 1525 1526 1527 1528 1530 1531 1532 1533 1534 1536 1536 1537 1538 1538 1539 1540 1541 1542 1543 1543 1543
1477 1478 1480 1480 1480 1483 1487 1490 1494 1496 1500 1503 1505 1506 1508 1510 1512 1514 1518 1522 1524 1525 1526 1527 1528 1529 1530 1532 1533 1534 1535 1536 1537 1537 1538 1539 1540 1541 1541 1542 1542 1542
1476 1476 1477 1478 1479 1482 1485 1489 1492 1496 1499 1502 1503 1505 1506 1509 1511 1513 1516 1520 1522 1524 1525 1526 1528 1529 1530 1531 1532 1533 1534 1535 1536 1536 1537 1538 1539 1539 1540 1540 1541 1542
1475 1475 1475 1476 1478 1481 1484 1487 1491 1494 1498 1500 1501 1504 1505 1507 1510 1512 1514 1517 1521 1523 1525 1526 1527 1529 1530 1531 1532 1532 1532 1534 1534 1535 1536 1537 1538 1538 1539 1539 1540 1541
1475 1475 1475 1474 1476 1479 1482 1485 1489 1492 1496 1498 1500 1502 1504 1506 1509 1511 1512 1515 1519 1522 1524 1525 1526 1528 1529 1530 1531 1531 1531 1532 1533 1534 1535 1536 1537 1537 1538 1539 1540 1540
1476 1476 1476 1475 1475 1478 1481 1484 1488 1491 1494 1496 1499 1501 1504 1506 1508 1510 1511 1514 1518 1521 1522 1524 1525 1526 1528 1529 1530 1530 1530 1531 1532 1533 1534 1535 1536 1536 1537 1538 1539 1540
1478 1478 1479 1477 1475 1478 1482 1485 1488 1491 1492 1495 1497 1500 1503 1505 1508 1510 1511 1512 1516 1518 1521 1522 1523 1525 1526 1527 1528 1529 1529 1530 1531 1532 1533 1534 1535 1536 1536 1537 1538 1539
1481 1480 1480 1479 1478 1479 1482 1485 1489 1491 1491 1493 1496 1499 1502 1505 1507 1509 1510 1511 1514 1517 1519 1521 1522 1524 1525 1526 1527 1528 1529 1530 1531 1532 1533 1534 1534 1535 1536 1537 1537 1538
1487 1485 1483 1481 1480 1481 1483 1486 1489 1491 1493 1494 1497 1499 1501 1504 1507 1507 1508 1510 1513 1515 1518 1520 1522 1523 1524 1525 1526 1527 1528 1529 1530 1531 1532 1533 1534 1534 1535 1536 1537 1537
1492 1491 1489 1485 1482 1482 1484 1487 1490 1492 1495 1497 1498 1499 1501 1503 1506 1506 1507 1509 1512 1514 1517 1519 1521 1522 1523 1524 1524 1525 1527 1528 1529 1530 1531 1532 1533 1534 1534 1535 1535 1536
Wind_Speed
24 24 24 24 26 26 26 27 27 26 26 25 23 23 23 21 19 19 18 17 17 17 18 19 19 18 16 15 16 17 16 16 17 17 16 16 16 15 14 15 15 14
25 26 25 23 25 27 27 27 27 26 26 24 23 23 22 21 19 18 18 18 18 18 19 19 18 17 16 15 16 17 16 16 16 17 17 16 16 15 14 15 16 15
26 26 25 23 25 27 27 27 28 26 25 24 23 23 22 20 20 19 19 19 19 19 20 20 18 16 16 16 16 16 16 16 16 17 17 16 16 15 14 15 15 15
26 26 26 25 25 27 29 29 29 28 27 26 24 23 22 21 21 20 19 19 20 20 20 20 18 17 16 16 16 17 16 17 17 17 17 17 16 14 15 15 15 15
26 26 27 27 27 29 31 31 32 31 30 28 25 23 21 21 21 21 19 19 20 20 19 19 18 18 17 16 16 16 16 17 17 16 16 16 16 15 15 16 15 16
25 26 27 28 28 31 33 33 33 33 31 28 25 22 20 20 21 20 20 21 21 19 18 18 18 18 18 17 15 15 15 16 16 16 16 16 15 15 15 16 15 15
25 25 27 27 29 33 34 32 30 30 29 27 25 22 20 21 21 21 22 22 21 19 16 17 19 19 19 16 14 13 14 15 15 15 15 14 15 15 14 15 15 14
25 25 27 27 30 33 32 29 28 29 29 27 25 23 22 21 21 22 23 23 21 18 16 17 18 18 17 15 13 13 15 16 15 14 15 14 14 14 13 13 13 14
26 25 27 27 29 31 31 29 29 30 30 28 25 23 22 20 20 22 23 22 20 18 17 19 19 17 16 14 12 14 16 16 15 14 14 14 13 12 12 12 13 13
26 26 27 27 28 29 29 28 28 29 29 27 24 23 21 18 19 21 22 20 18 19 19 20 19 18 16 13 12 14 16 15 15 15 14 12 10 10 11 12 12 13
25 26 26 26 27 28 28 26 26 26 28 27 24 22 20 18 20 21 21 19 19 20 19 17 17 19 17 13 12 14 15 15 15 16 14 11 9 10 11 9 9 10
26 26 25 26 28 29 27 26 26 26 27 27 24 21 19 20 22 22 20 20 20 20 18 14 16 19 17 14 15 16 16 15 15 15 13 12 10 10 10 8 6 6
26 26 26 27 30 30 28 26 27 27 27 27 23 21 20 22 24 21 20 21 20 20 18 14 16 20 18 16 18 18 16 14 15 14 13 13 11 9 10 9 5 5
26 28 28 29 30 30 29 28 29 29 28 26 22 21 22 24 25 22 21 21 20 21 19 15 16 20 18 17 18 17 16 15 15 14 13 13 11 9 9 8 6 4
26 29 29 29 31 31 30 30 31 30 28 25 23 23 24 26 26 23 22 22 21 22 19 15 17 20 18 17 18 16 16 16 15 14 14 13 12 11 9 7 6 4
27 29 30 31 32 32 31 32 31 30 28 27 27 26 26 28 27 24 22 21 22 22 18 15 18 20 17 17 17 17 17 17 17 15 15 14 13 13 10 7 7 4
26 28 31 33 33 31 32 32 31 29 29 31 32 30 28 29 29 26 23 21 22 22 17 16 19 19 17 17 17 17 17 18 18 17 16 13 13 13 10 8 8 6
22 24 29 34 34 31 32 34 33 31 31 33 35 33 31 30 29 28 25 21 22 21 18 18 19 18 17 17 18 17 17 17 18 17 15 13 11 11 10 9 9 7
19 22 27 34 34 31 32 36 35 32 31 34 34 33 32 30 28 28 25 22 22 21 20 20 19 18 17 17 17 18 17 17 17 16 15 12 11 11 11 11 10 7
19 20 26 34 35 33 35 37 36 34 33 34 34 31 31 30 27 27 25 22 22 21 21 20 19 18 17 16 17 18 17 16 16 16 15 14 13 14 13 12 10 8
19 22 25 32 34 35 38 38 36 36 35 34 34 32 31 30 27 25 24 22 22 21 20 19 18 17 18 17 17 18 17 16 16 15 15 15 15 15 14 13 11 10
18 20 23 29 32 34 36 36 35 36 36 34 34 33 31 29 27 25 24 23 21 18 17 17 18 18 19 19 19 18 17 17 16 15 16 16 16 16 15 14 13 12
16 19 21 26 30 32 34 35 35 34 35 35 34 32 30 29 27 25 24 22 20 17 15 16 18 19 19 20 20 20 18 18 18 17 16 16 16 16 16 15 14 12
13 17 20 25 30 32 32 34 34 33 34 34 34 32 30 29 27 26 24 21 19 18 16 17 18 18 17 18 20 20 19 18 17 17 16 15 15 15 14 14 14 13
15 16 20 24 30 33 32 31 31 30 29 30 31 32 31 29 28 26 24 22 21 20 19 18 19 19 17 17 18 18 18 18 17 16 16 15 14 14 14 14 14 13
15 15 19 23 27 31 32 30 29 27 27 27 28 29 29 28 27 26 25 24 23 22 21 19 19 20 19 17 17 16 16 16 15 15 15 16 15 15 15 14 14 13
Wind_Direction
221 221 219 218 218 213 206 203 201 200 201 199 195 196 195 194 194 196 195 193 193 189 189 193 192 192 194 195 196 196 197 199 199 200 204 207 206 206 205 204 207 213
224 223 222 217 217 215 210 206 204 202 201 198 196 197 196 196 198 198 194 191 193 191 190 193 195 195 195 195 196 197 198 199 199 202 205 206 204 204 206 208 209 214
226 223 222 217 212 212 210 206 204 203 200 196 197 197 198 200 200 198 193 192 192 190 191 194 196 197 196 193 193 196 198 197 201 205 205 208 207 203 204 208 211 213
228 225 224 220 212 209 211 207 202 201 198 195 195 196 200 202 200 196 192 192 192 189 189 192 195 195 194 192 192 195 195 195 199 203 206 209 209 206 205 205 209 212
230 229 229 225 217 211 211 209 203 198 195 193 193 195 200 201 198 195 192 191 192 190 187 188 191 192 192 193 193 193 194 194 195 199 205 209 209 208 207 206 209 212
233 232 232 229 223 217 215 212 205 197 190 188 189 193 196 196 196 196 194 190 189 191 188 184 186 187 188 191 191 192 195 195 194 195 200 205 207 206 203 204 209 210
237 235 232 229 227 223 220 217 209 199 190 186 186 190 190 190 194 195 191 189 189 192 189 183 183 183 183 186 188 194 198 196 194 194 195 197 200 201 199 200 206 209
239 237 235 231 227 226 225 221 212 204 195 187 184 186 185 186 190 189 187 188 190 193 189 182 182 183 182 185 189 194 195 194 194 194 192 192 194 198 198 195 201 209
240 238 237 232 225 226 226 218 211 207 198 189 185 183 181 184 187 185 184 187 190 190 184 181 182 182 183 186 188 189 190 189 191 190 188 188 190 195 198 196 198 206
240 240 238 230 223 225 223 213 209 209 200 190 184 179 180 185 187 185 183 184 184 180 176 178 182 184 183 180 181 187 187 183 183 183 181 179 182 189 194 196 201 208
243 245 240 229 222 225 222 211 207 208 201 192 183 178 182 185 183 181 179 177 174 170 169 173 181 186 183 174 174 180 177 173 175 178 175 168 170 179 182 179 190 205
242 243 237 226 222 223 222 211 203 202 199 192 184 180 182 179 172 169 167 166 166 166 167 169 175 178 174 167 168 168 164 164 170 174 173 168 166 175 178 173 177 199
234 235 232 224 219 220 219 208 198 197 196 194 190 183 177 172 167 163 162 163 167 170 173 174 174 171 167 165 168 167 164 166 169 171 172 170 168 173 179 183 194 214
232 232 231 222 214 214 213 204 196 196 196 196 192 179 169 166 166 168 169 171 174 177 178 180 177 171 168 168 169 168 169 171 171 171 172 174 176 175 174 182 200 226
239 235 233 223 211 208 208 202 195 194 194 191 184 174 167 165 168 173 176 176 179 181 182 182 177 172 171 173 172 171 173 175 175 174 176 181 182 173 168 181 200 217
243 237 234 227 214 206 206 201 193 191 190 183 178 174 169 168 171 176 178 177 178 182 184 181 175 173 174 176 177 177 175 178 180 176 176 180 176 169 170 178 185 191
247 238 230 228 221 209 202 196 186 186 187 181 177 174 171 173 176 177 177 179 182 184 184 180 177 178 180 180 182 183 182 182 182 178 176 176 172 171 175 176 180 189
254 244 228 224 220 209 199 191 183 183 185 179 175 174 172 174 177 175 175 180 185 187 185 182 182 183 184 184 185 189 190 188 185 182 182 181 173 173 178 177 180 186
241 239 228 218 211 203 194 186 181 182 184 177 173 174 173 174 177 175 173 178 185 187 185 184 185 184 184 186 188 191 193 192 188 186 186 180 167 168 178 181 178 178
205 211 218 212 205 198 190 182 179 182 184 177 174 173 172 175 178 175 172 176 182 185 185 186 186 186 184 185 187 190 191 192 194 192 189 182 168 164 174 178 172 169
178 182 194 198 196 191 184 179 179 182 181 175 172 173 174 175 178 176 172 173 178 184 188 190 190 189 187 184 184 186 187 192 195 191 187 184 174 168 174 177 170 167
166 171 174 178 186 186 179 175 176 176 175 172 172 174 175 175 175 174 172 173 178 187 194 197 195 191 189 186 182 181 183 187 186 177 172 175 171 168 173 176 172 172
151 163 159 160 173 180 177 174 174 171 169 172 176 175 173 173 173 171 172 175 180 186 191 194 190 186 188 190 189 185 181 180 177 170 165 167 167 167 172 178 179 177
110 137 139 144 159 167 166 167 170 168 166 169 173 171 169 172 174 171 170 174 176 176 178 180 177 173 177 186 192 194 191 185 180 177 173 173 174 174 177 184 188 185
65 89 102 120 143 155 158 160 164 164 161 162 167 168 168 170 174 173 171 171 173 173 175 178 175 168 167 174 181 188 194 192 189 188 185 184 185 187 188 190 194 195
47 54 68 88 113 134 145 151 154 156 157 159 162 166 166 166 169 171 169 166 168 172 173 176 177 171 167 168 169 172 179 186 190 192 194 192 191 194 196 196 197 200